Lid_Strength_Index
4 4 4 5 5 5 8 12 17 9 9 16 19 20 13 10 13 12 13 13 14 16 15 16 16 15 14 12 13 16 15 16 18 17 14 13 13 15 15 17 17 15 17 17
3 4 5 5 5 5 11 14 15 10 11 20 23 14 12 12 13 13 13 14 14 14 16 17 15 15 12 12 14 15 15 17 22 19 15 13 15 14 14 15 14 16 18 16
3 4 5 5 5 5 10 13 16 15 14 16 15 14 14 14 12 13 13 14 13 15 16 15 16 16 13 12 13 11 12 16 18 22 19 16 17 16 15 16 21 19 16 15
3 4 4 5 5 5 10 14 16 14 19 18 16 14 13 14 15 12 13 14 14 15 17 16 17 16 15 13 11 14 15 19 16 16 15 16 16 16 16 17 16 19 17 16
3 3 4 5 5 5 10 13 16 14 15 14 14 14 16 14 13 13 14 15 14 15 16 16 17 16 16 16 15 16 15 19 17 19 16 17 17 16 16 16 15 15 15 15
3 3 4 4 5 6 12 12 12 13 14 14 16 16 14 13 12 12 12 13 14 15 14 13 14 13 14 14 15 16 16 17 19 20 16 17 22 17 16 14 13 14 14 13
3 3 3 4 5 6 11 11 12 15 18 15 15 13 12 12 12 14 12 12 14 12 11 12 13 14 14 14 15 14 16 17 17 21 18 28 17 12 12 13 13 12 12 11
3 3 3 4 4 5 10 9 12 15 20 14 13 12 12 12 11 13 13 12 11 11 13 16 19 19 16 15 15 15 15 16 22 25 20 18 16 13 13 15 14 12 13 11
3 3 3 4 4 4 8 9 10 12 16 15 11 12 12 14 14 13 13 11 11 12 15 19 25 23 17 17 16 14 15 15 19 22 25 25 16 12 11 12 17 12 11 11
3 3 4 4 4 4 7 9 9 12 16 13 11 14 12 12 13 15 13 13 13 12 18 25 22 20 15 18 17 18 18 17 21 20 21 19 13 12 11 17 16 12 11 11
3 3 3 4 4 4 6 9 8 11 14 12 10 10 12 13 13 15 13 14 14 16 21 20 21 19 17 17 15 16 17 19 19 17 20 23 12 13 15 14 13 12 11 11
2 3 3 3 4 4 6 11 8 7 11 12 9 9 9 9 10 12 13 13 14 14 18 20 19 19 19 16 20 15 19 15 17 16 17 14 13 13 13 12 13 12 12 11
2 3 3 3 3 3 6 10 8 8 10 11 12 11 9 8 8 9 13 13 12 13 13 17 19 20 17 19 18 16 15 14 16 15 14 14 13 13 12 12 12 11 11 11
2 2 3 3 3 3 5 9 9 9 11 14 14 9 10 8 7 8 9 10 11 12 13 18 17 18 15 18 16 17 15 15 15 15 14 14 13 13 12 12 11 11 11 10
1 2 2 3 3 3 6 8 9 8 11 16 15 11 10 8 9 9 9 10 11 14 16 15 18 16 16 16 15 17 15 16 17 17 14 14 14 13 12 12 12 11 11 11
1 2 2 3 3 5 6 10 8 8 9 14 17 12 11 10 9 10 10 11 13 16 16 18 17 13 15 20 18 14 13 12 12 14 13 13 12 12 11 11 11 11 11 11
1 1 2 2 3 5 9 12 10 6 7 13 14 14 12 10 10 11 12 12 12 13 14 18 16 15 14 18 18 13 13 13 13 12 12 13 12 13 11 11 10 10 11 11
1 1 1 2 3 4 8 8 5 5 9 11 14 15 14 10 14 15 13 14 13 12 13 16 15 15 13 17 13 13 12 13 12 12 11 12 12 11 11 10 11 12 12 12
0 0 1 3 5 9 9 4 4 5 10 13 14 17 18 11 13 13 14 14 13 13 12 15 15 18 18 14 13 13 13 13 13 12 12 12 12 12 12 11 12 12 12 12
0 2 6 10 8 3 4 6 9 10 10 13 15 15 16 12 12 13 12 14 16 16 14 14 15 15 14 12 12 12 12 12 12 13 13 12 12 11 11 11 11 12 12 12
4 7 8 5 2 6 8 11 12 12 14 13 14 15 15 11 13 12 12 13 13 18 17 15 18 18 13 10 11 10 11 11 11 10 11 11 11 11 12 11 11 12 12 13
5 5 4 4 7 9 12 12 11 13 15 13 14 15 13 12 10 12 12 14 14 17 14 16 20 15 11 11 12 11 11 11 10 10 10 11 10 10 11 11 12 12 12 12
4 5 8 9 9 13 14 17 15 16 14 13 14 14 12 11 10 11 11 13 16 13 16 18 16 12 10 11 11 11 11 11 11 11 10 10 10 10 10 11 12 11 12 12
8 9 12 12 13 12 13 14 14 13 13 12 11 12 11 11 12 11 14 13 14 18 18 19 15 11 10 11 11 11 11 11 11 10 10 10 10 11 12 12 12 12 12 12
9 9 13 13 11 12 12 12 12 12 10 10 11 10 10 11 12 11 13 16 18 17 19 15 12 10 11 11 11 11 11 12 11 10 10 11 11 12 11 12 10 10 11 12
8 9 10 11 13 17 16 13 12 9 9 9 9 10 12 13 12 14 16 16 18 17 14 12 11 11 11 11 11 10 10 10 10 9 9 10 11 10 10 10 10 11 10 12
9 10 11 11 11 12 12 10 9 7 9 11 10 14 13 13 15 14 13 18 15 12 12 11 10 10 10 10 10 10 9 9 9 9 9 9 9 9 9 9 9 9 9 11